Home   Weather   Kobe   Past weeks

Flag for Japan Past Weather in Kobe, Japan — Yesterday and Last 2 Weeks

Now
61 °F

Sunny.


Feels Like: 61 °F
Forecast: 55 / 68 °F
Wind: 3 mph from North

Location: Osaka International Airport

Current Time: Apr 28, 2017 at 9:48:45 am

Latest Report: Apr 28, 2017 at 9:00 am


Visibility: 10 mi

Pressure: 29.80 "Hg

Humidity: 45%

Dew Point: 39 °F

Location of KobeLocation

Past Weather in Kobe — Graph

°F

Kobe Temperature Yesterday

Maximum temperature yesterday: 66 °F (at 12:00 pm)
Minimum temperature yesterday: 54 °F (at 5:00 am)
Average temperature yesterday: 62 °F

High & Low Weather Summary for the Past Weeks

 TemperatureHumidityPressure
High75 °F (Apr 16, 1:00 pm)100% (Apr 17, 4:00 pm)30.27 "Hg (Apr 17, 4:00 pm)
Low45 °F (Apr 14, 5:00 am)20% (Apr 14, 3:00 pm)29.39 "Hg (Apr 18, 5:00 am)
Average63 °F53%29.89 "Hg
* Reported Apr 13 8:00 am — Apr 28 8:00 am, Kobe, Weather by CustomWeather, © 2017

Note: Actual official high and low records may vary slightly from our data, if they occured in-between our weather recording intervals... More about our weather records

Advertising

Kobe Weather History for the Previous 24 Hours

Scroll right to see more
 ConditionsComfort  
Time TempWeatherWind HumidityBarometerVisibility
8:00 am
Fri, Apr 28
57 °FSunny.1 mph48%29.80 "Hg10 mi
7:00 am52 °FSunny.2 mph62%29.83 "Hg10 mi
6:00 am46 °FSunny.5 mph76%29.80 "Hg10 mi
5:00 am45 °FClear.5 mph76%29.80 "Hg10 mi
8:00 pm
Thu, Apr 27
59 °FPassing clouds.12 mph34%29.80 "HgN/A
7:00 pm61 °FPassing clouds.8 mph29%29.77 "HgN/A
6:00 pm63 °FPartly sunny.10 mph25%29.77 "HgN/A
5:00 pm64 °FPartly sunny.10 mph22%29.74 "HgN/A
4:00 pm66 °FBroken clouds.13 mph26%29.74 "HgN/A
3:00 pm66 °FBroken clouds.8 mph28%29.74 "HgN/A
2:00 pm64 °FPartly sunny.9 mph30%29.74 "HgN/A
1:00 pm66 °FPartly sunny.9 mph28%29.74 "HgN/A
12:00 pm66 °FPartly sunny.12 mph24%29.74 "HgN/A
11:00 am64 °FPartly sunny.9 mph37%29.77 "HgN/A
10:00 am63 °FPartly sunny.10 mph39%29.77 "HgN/A
9:00 am61 °FPartly sunny.15 mph45%29.74 "HgN/A
Weather by CustomWeather, © 2017

See weather overviewHow to use our weather pages